Dewpoint
68 68 67 68 68 68 68 69 68 69 69 68 68 68 68 69 66 66 71 69 69 67 67 68 69 71 67 65 67 68 68 70 64 65 66 67 67 68 69 68 68 68 67 67 68 68 67 67 67 67 67 67 67 67 67 68 69 69 69 68 67 67 67 67 67 66 65 65 65 66 65 64 62 61 61 60 60 61 61 60 60 59 58 57 57
68 68 67 67 68 68 68 68 69 69 69 68 68 68 67 67 66 66 68 68 67 70 69 69 68 67 69 68 70 69 68 66 63 62 65 66 66 68 69 68 68 68 68 68 68 68 68 68 67 67 66 67 67 67 67 68 69 69 68 68 67 67 67 67 67 66 66 66 66 66 65 64 62 61 61 61 60 61 61 61 60 60 59 58 57
69 68 68 67 67 68 68 68 68 68 68 68 68 68 68 67 66 69 68 67 68 67 70 67 69 69 68 67 68 71 69 67 64 61 65 66 67 67 67 68 69 69 69 69 69 69 68 68 68 67 67 67 67 67 67 68 69 69 68 68 67 67 67 67 67 66 66 66 66 65 65 64 63 62 61 61 60 60 60 60 61 60 60 59 58
69 68 69 68 68 69 67 66 66 68 68 68 67 67 67 66 67 67 69 69 68 69 69 67 67 66 69 67 69 70 70 67 64 59 65 66 67 67 67 67 69 69 69 69 69 69 69 69 68 68 67 67 67 67 67 67 68 68 68 68 67 67 67 67 67 67 66 66 66 65 65 64 63 62 61 62 61 60 60 60 60 60 59 59 58
69 68 68 68 69 68 67 66 65 67 67 67 67 68 68 68 67 67 70 70 67 67 67 70 68 68 69 70 70 70 69 66 65 61 64 66 66 66 67 67 67 69 69 69 69 69 69 69 69 68 67 67 68 67 67 67 68 68 68 68 68 67 67 67 67 66 66 67 66 66 65 64 64 62 62 62 62 61 60 59 59 59 59 59 59
68 68 67 67 67 68 66 68 68 69 69 68 67 67 67 67 68 67 66 67 68 68 68 67 69 68 69 69 70 70 71 69 67 64 64 66 68 66 66 66 67 67 67 69 69 69 69 69 69 68 68 68 69 68 67 67 68 69 69 68 68 68 67 67 67 66 66 66 66 66 65 64 64 63 62 61 62 62 61 60 60 59 59 58 58
67 68 68 67 66 66 67 67 69 69 69 69 69 69 70 68 69 66 66 66 68 66 67 66 67 68 69 69 69 69 70 69 67 66 62 65 66 66 65 65 66 66 67 67 69 69 69 69 69 69 69 69 69 68 68 68 67 68 68 68 68 68 67 67 67 67 66 66 66 66 65 64 64 64 62 62 62 62 62 61 61 60 60 59 58
66 68 68 67 67 66 66 68 66 66 67 69 70 68 68 69 69 67 66 65 66 66 67 67 66 66 67 69 69 70 70 70 68 66 60 63 65 67 66 64 65 65 67 66 67 68 69 69 69 69 69 69 69 68 68 68 67 68 68 68 68 68 67 67 67 67 66 66 66 66 65 64 65 64 63 63 63 62 62 61 61 61 60 59 58
61 62 67 66 66 67 66 66 67 66 67 67 68 68 67 68 69 68 66 66 66 65 66 67 67 66 67 66 67 69 70 69 69 67 66 64 63 64 64 65 65 67 65 66 66 66 69 69 69 69 69 69 69 69 69 68 68 68 68 69 68 68 67 67 67 67 66 66 66 66 65 65 65 64 64 63 63 62 62 60 61 61 60 60 59
61 61 64 64 64 66 67 67 67 67 67 67 66 67 68 68 67 68 67 66 65 65 66 67 66 65 66 67 66 69 69 68 69 69 67 62 61 62 64 65 65 64 64 65 66 67 67 69 70 69 69 69 69 69 69 69 69 68 68 68 67 68 68 67 67 67 66 66 66 66 66 65 65 64 64 64 63 62 62 61 60 61 60 60 59
60 60 62 61 61 62 64 66 67 66 67 66 66 66 67 69 67 68 67 67 66 65 65 65 66 66 66 67 67 68 68 68 68 68 67 65 61 62 64 65 65 65 64 65 65 67 67 67 68 68 68 69 69 69 69 68 69 69 68 68 67 68 68 68 67 67 67 66 66 66 66 65 65 64 64 64 64 63 62 62 61 60 61 61 60
58 59 61 62 61 62 62 64 65 66 66 66 66 65 65 65 66 67 66 66 67 66 66 67 66 65 64 65 66 66 66 66 67 68 68 68 66 64 63 65 65 65 65 65 66 66 66 67 68 67 67 69 69 69 69 69 69 69 68 68 68 68 67 68 68 67 67 67 66 66 66 66 65 65 64 64 64 63 62 62 62 61 61 61 61
58 58 60 61 61 62 62 64 64 64 65 65 65 67 66 66 66 67 66 65 66 66 67 66 66 64 64 64 64 65 65 66 65 67 67 68 68 65 64 64 64 65 65 66 66 67 66 66 66 66 67 67 68 69 69 69 69 69 68 68 67 67 67 68 68 68 67 67 67 66 66 66 65 65 65 64 64 64 63 62 62 62 61 62 62
57 58 60 59 61 61 62 62 63 63 64 65 65 66 66 65 65 66 66 65 65 66 65 67 64 63 62 62 63 64 66 65 65 66 67 68 67 66 66 65 64 64 65 65 66 67 67 66 66 66 66 67 67 67 68 68 68 69 69 68 67 67 67 68 68 68 68 67 67 67 66 66 66 65 65 65 65 64 63 63 62 62 62 62 62
55 56 56 58 60 61 61 62 61 62 63 63 65 65 66 65 64 65 65 66 66 67 66 67 63 64 63 61 60 60 62 63 65 66 67 67 67 67 67 66 65 65 65 64 63 66 67 66 66 66 66 67 67 67 67 68 67 68 69 69 68 67 67 68 68 68 68 67 67 67 67 67 66 66 65 65 65 65 64 64 63 62 62 62 63
54 53 54 56 59 60 61 61 61 62 63 62 63 62 64 66 65 65 65 63 64 65 66 66 65 63 60 60 61 60 58 60 62 64 66 67 67 67 68 67 66 66 65 63 62 63 65 65 66 66 66 67 66 67 67 67 67 68 69 69 68 68 67 67 68 68 68 68 68 67 67 67 67 67 66 65 65 65 65 64 64 63 62 62 63
54 54 53 54 57 60 60 60 60 61 61 62 62 62 62 63 65 65 65 63 62 64 65 65 65 66 63 60 58 57 58 60 60 63 66 66 66 67 67 66 66 66 66 65 64 63 63 64 65 65 65 67 67 67 66 66 66 68 68 69 69 68 68 67 68 68 68 67 68 68 67 67 67 67 67 66 65 65 66 65 64 64 63 63 63
54 53 52 55 58 60 61 60 60 60 61 60 60 62 62 63 64 66 65 64 63 64 63 65 66 67 66 66 64 61 60 61 61 58 65 66 66 66 67 67 67 66 66 66 65 64 63 64 65 65 65 66 66 65 66 66 67 67 67 67 69 69 68 67 67 68 68 67 68 67 68 67 67 67 67 67 66 65 66 66 65 64 64 64 64
56 54 54 54 56 62 61 60 59 60 61 61 61 61 61 62 63 66 65 65 64 63 63 63 65 65 65 65 66 65 65 63 60 61 58 63 65 65 66 67 67 66 66 65 65 65 65 63 64 64 65 65 65 65 65 66 66 68 68 68 69 69 69 68 67 67 68 68 67 67 67 68 68 68 67 67 66 66 65 66 65 65 65 65 64
57 56 55 54 56 62 60 60 61 60 60 60 61 62 62 63 64 65 65 65 65 63 63 63 63 63 65 64 64 64 64 64 65 61 60 58 60 64 66 66 66 66 66 65 65 64 64 65 64 63 64 64 64 64 64 65 65 66 67 68 68 69 69 68 68 68 67 68 67 67 67 67 67 67 67 67 67 66 66 66 65 65 65 65 65
57 57 56 55 57 61 60 60 60 60 60 60 62 62 63 63 64 64 64 65 65 65 64 63 63 63 62 62 63 63 64 63 64 63 61 59 59 60 61 65 66 66 66 66 66 65 65 65 65 63 64 64 64 64 63 63 65 66 67 68 68 69 69 69 68 68 67 68 68 67 67 67 67 67 67 67 67 67 66 66 66 66 66 65 65
59 58 57 55 58 61 61 60 60 60 61 61 60 61 62 63 63 64 64 64 65 64 63 64 64 64 63 63 62 62 62 62 62 63 62 62 59 60 61 62 61 63 65 65 65 65 66 67 66 64 64 64 64 64 63 63 64 65 66 68 69 69 69 69 68 68 68 67 68 68 67 67 67 67 66 67 67 67 67 66 66 66 66 66 65
60 59 58 57 60 61 62 60 60 60 60 60 60 60 62 62 63 64 64 64 64 64 64 65 65 64 64 63 62 62 61 61 62 61 61 61 61 61 61 62 61 62 64 65 65 66 66 66 66 65 64 64 64 63 63 63 63 63 64 66 68 69 69 69 69 68 68 68 68 68 68 67 67 66 66 66 66 66 67 67 66 66 66 65 65
59 58 59 58 59 61 62 61 60 59 60 60 60 59 60 61 63 63 63 64 65 65 64 64 64 64 64 64 64 63 63 63 63 62 62 62 62 61 61 63 63 63 64 65 67 67 67 65 66 65 66 65 64 63 63 64 63 63 62 65 66 68 69 69 69 68 68 68 68 68 68 67 67 67 67 66 66 66 66 67 66 66 66 66 65
57 57 58 58 57 59 62 61 60 60 60 59 59 59 59 61 61 62 63 62 63 64 63 64 63 63 64 65 64 64 64 65 64 62 63 64 63 61 62 63 61 62 64 64 63 65 66 66 66 67 67 66 65 65 64 64 63 63 63 64 65 66 68 69 69 69 69 69 68 68 68 68 67 66 66 66 66 65 66 66 67 66 66 66 66
57 58 58 58 58 58 58 59 59 59 59 59 59 59 59 59 60 60 61 63 64 63 64 63 63 64 64 64 64 64 64 64 63 63 64 64 62 61 61 62 62 62 63 63 65 64 65 65 65 66 66 66 66 67 66 65 64 63 63 64 65 65 66 68 69 69 69 69 68 68 68 68 67 67 66 66 66 65 65 65 67 67 67 66 67
57 58 58 58 58 58 58 58 59 60 60 60 60 59 60 60 60 61 61 62 63 63 63 63 63 64 64 64 64 64 64 64 64 64 65 64 63 63 61 59 59 60 61 63 63 63 62 64 64 65 65 65 65 67 68 68 66 64 63 65 65 64 64 66 67 68 69 69 68 67 67 67 67 67 67 66 66 65 65 65 66 67 67 67 67
58 58 58 58 57 58 57 57 57 58 60 60 59 59 59 59 59 60 60 61 62 62 63 63 63 64 64 64 63 64 65 64 64 63 64 65 65 64 63 61 59 58 60 60 62 62 63 63 64 64 65 66 69 68 66 68 69 64 64 65 65 64 63 64 65 66 68 69 68 67 67 67 67 67 67 67 66 66 66 66 66 66 66 67 67
57 57 57 57 57 57 57 57 57 57 57 58 59 59 59 59 59 59 60 61 61 61 62 63 64 64 64 63 63 63 65 65 63 63 64 65 65 65 64 63 62 59 58 58 61 61 63 64 63 67 67 69 67 68 68 68 67 66 66 66 65 65 63 62 62 64 66 67 67 67 66 66 67 67 67 67 67 67 66 66 66 66 67 67 67
57 57 56 56 56 56 56 55 55 55 55 56 59 59 58 59 59 59 60 61 61 61 62 62 62 63 63 64 63 63 64 64 64 63 64 65 64 64 65 65 64 62 61 59 60 62 64 65 64 64 67 67 68 69 68 68 65 66 66 66 66 65 61 60 60 62 63 64 64 64 65 66 66 67 67 68 68 68 67 66 66 66 67 67 67
57 56 56 53 54 54 55 54 54 53 54 55 56 59 59 59 59 59 59 59 60 61 62 62 63 62 62 63 64 64 64 64 64 64 64 63 64 64 65 65 64 63 62 61 58 63 65 63 65 68 67 67 65 67 67 68 66 65 67 66 66 63 60 61 59 60 61 60 60 60 61 64 66 66 67 67 68 68 67 67 67 66 66 65 64
55 55 53 52 52 52 52 52 51 52 52 53 54 56 58 58 58 58 58 58 58 59 61 62 61 62 62 62 63 63 64 64 64 64 65 64 64 64 63 64 65 65 64 62 60 60 64 64 65 66 67 67 68 68 66 67 68 63 66 67 66 62 63 62 59 59 59 59 59 59 59 62 65 66 66 66 67 67 67 67 67 65 64 62 62
55 54 52 50 50 52 51 51 51 51 51 52 54 55 56 56 56 57 57 57 57 58 60 61 61 62 62 62 61 63 63 64 63 63 64 64 63 63 64 64 64 64 64 62 61 60 62 65 65 65 66 67 67 68 67 67 68 66 64 66 66 66 66 66 64 58 57 58 58 57 57 58 60 62 65 66 66 65 65 65 62 61 63 63 63
54 52 50 50 51 51 51 50 51 51 51 50 52 54 54 55 55 56 57 56 56 56 60 60 60 61 62 61 61 61 63 62 63 63 63 63 61 62 64 64 64 64 65 63 62 61 61 64 64 64 65 67 64 68 67 67 67 68 66 67 68 67 66 66 66 64 58 56 57 57 57 57 57 58 59 64 64 60 58 59 59 59 60 61 61
53 52 51 51 51 51 50 50 50 50 50 50 52 53 53 53 53 54 55 55 56 56 56 58 60 61 60 59 60 62 62 61 61 63 62 61 62 63 62 62 62 62 63 64 63 61 62 62 64 64 65 65 64 65 67 67 67 67 67 67 66 66 67 68 67 65 58 57 56 56 56 56 56 56 56 58 59 58 57 57 57 57 57 57 58
52 53 52 50 50 51 50 49 49 49 49 50 50 51 51 52 51 51 52 53 54 55 56 57 58 59 59 60 61 62 62 61 62 62 62 62 63 63 63 63 63 63 64 63 63 62 62 61 63 64 65 64 65 66 66 67 67 67 67 67 67 66 67 68 68 67 62 56 55 55 55 55 55 55 56 56 56 57 56 56 56 56 55 55 55
51 54 54 52 51 50 51 49 49 49 48 48 49 50 51 50 49 50 50 52 54 55 56 58 59 61 60 60 60 61 61 61 61 62 63 63 62 62 62 63 63 63 63 63 63 63 62 61 62 63 64 64 66 66 66 66 67 67 67 67 67 67 67 67 68 63 55 55 55 55 55 55 55 54 54 54 54 55 55 55 55 54 54 53 53
51 53 53 53 52 49 48 48 49 48 48 48 49 48 47 47 48 49 50 51 52 53 55 57 58 61 60 59 60 61 61 61 60 61 62 62 62 61 62 61 62 62 62 62 62 61 62 61 61 61 63 63 64 64 67 65 65 65 65 66 66 66 66 66 67 66 61 60 59 58 54 54 54 54 54 53 53 53 53 53 53 53 53 53 52
51 51 53 51 52 50 48 50 49 49 49 49 50 50 47 46 47 48 50 50 51 53 55 55 57 58 60 60 60 61 61 61 61 61 62 61 61 60 60 61 62 62 62 62 62 62 62 62 62 62 62 63 63 62 65 66 65 65 64 64 64 65 64 65 66 67 66 65 61 58 59 58 57 55 52 51 52 52 53 53 53 53 53 52 52
52 50 51 52 52 51 50 50 50 51 50 49 50 49 47 47 48 49 49 50 51 52 54 54 56 57 60 60 61 61 61 62 62 62 62 61 61 62 62 61 62 61 61 62 61 61 61 61 61 60 61 61 61 63 64 64 64 63 65 64 63 63 63 64 64 64 65 65 65 64 57 57 57 56 52 52 52 52 52 52 52 53 53 52 51
53 51 50 51 51 51 50 50 50 51 52 53 51 48 48 48 49 49 50 51 52 52 52 54 55 58 58 61 62 61 61 62 62 61 60 62 62 61 62 62 61 61 60 61 60 60 60 60 60 60 60 61 61 61 60 61 61 61 63 64 63 63 63 63 65 65 65 65 64 65 66 64 62 61 59 58 57 53 53 52 54 53 52 51 50
51 51 51 51 51 51 50 50 50 53 54 52 50 47 46 48 48 50 51 52 52 52 52 53 55 56 59 60 60 60 60 61 61 55 53 55 58 61 62 62 61 61 61 61 61 60 60 59 59 59 59 59 60 60 60 61 63 62 62 61 62 63 63 62 63 63 64 64 64 64 65 66 66 65 65 63 61 59 59 56 58 57 51 50 49
52 51 51 49 50 52 51 51 51 52 54 50 45 40 41 43 48 50 50 51 52 52 52 52 54 55 58 59 61 61 60 61 60 53 51 52 51 51 52 55 58 60 60 61 60 61 60 59 60 60 59 59 60 60 62 61 61 61 61 61 61 62 61 60 58 61 64 63 63 63 63 65 65 63 59 57 57 57 55 52 49 49 49 48 48
51 52 51 49 49 51 53 52 52 52 53 49 40 40 41 41 44 48 50 51 52 53 52 52 53 55 56 58 61 60 60 60 62 59 57 52 49 49 49 49 49 48 49 56 58 59 59 59 60 60 60 59 60 60 61 61 61 61 61 61 60 61 61 60 60 59 61 61 62 62 61 64 63 59 57 56 54 52 50 49 48 48 47 47 47
51 50 49 50 50 50 52 51 51 52 53 42 40 41 41 40 41 46 49 51 52 53 53 52 53 55 56 57 59 59 59 59 59 61 60 57 53 51 51 52 53 51 45 44 47 57 59 60 60 58 58 59 59 59 60 61 60 60 61 60 60 60 59 59 59 58 57 59 61 60 59 62 61 58 56 56 55 54 52 48 48 47 47 46 46
50 49 49 50 50 50 51 51 51 51 53 46 40 41 41 40 40 42 49 51 53 53 53 53 55 57 57 57 57 58 60 59 56 56 60 60 60 59 59 57 53 53 51 48 49 51 57 60 59 56 56 57 57 57 58 59 61 60 60 60 60 59 59 56 57 56 55 57 60 60 59 59 58 56 53 53 54 51 50 46 45 45 45 45 45
49 49 49 49 50 50 51 51 50 51 52 41 40 40 40 41 41 45 52 54 55 55 55 55 57 57 56 56 57 57 58 55 52 52 56 58 60 60 55 53 51 50 49 48 50 56 57 56 55 54 53 54 54 54 55 59 61 61 61 61 61 60 59 59 58 57 55 55 55 60 57 58 58 54 53 53 52 51 50 46 45 45 44 44 44
50 50 50 49 49 50 51 51 51 52 50 39 40 41 40 40 42 51 52 54 55 54 54 57 57 56 54 54 55 55 57 52 48 42 46 53 59 57 54 52 51 50 49 47 43 46 52 53 52 51 49 48 46 49 50 54 59 61 62 62 61 61 60 57 55 55 53 54 53 57 58 58 58 55 54 54 53 50 51 50 45 45 44 44 44
49 50 50 49 49 49 50 50 53 53 51 43 39 41 40 40 45 50 51 52 53 54 55 55 56 53 53 52 52 52 53 52 46 39 40 47 59 56 54 53 52 51 51 50 45 43 43 43 43 43 43 43 44 44 44 45 51 58 60 59 58 59 58 55 55 53 52 52 51 50 56 56 57 55 54 55 53 51 51 51 51 45 44 44 44
50 50 50 48 48 50 51 51 52 51 51 46 41 41 40 40 46 49 50 51 53 54 55 56 56 53 53 54 53 49 49 49 41 40 40 52 58 56 54 52 52 51 52 53 53 50 43 43 43 44 45 46 46 46 45 45 48 54 58 56 57 58 57 56 54 53 53 52 50 50 55 56 57 56 54 55 54 54 53 52 51 47 45 44 44
50 49 47 47 48 51 54 54 49 51 52 47 41 40 40 40 44 47 48 50 53 55 53 55 55 55 51 50 49 45 45 43 39 40 40 52 57 56 54 53 52 52 53 53 53 53 54 54 54 54 52 51 53 52 51 46 47 52 55 56 57 58 56 56 54 54 53 51 51 50 54 53 55 55 55 55 52 54 55 54 52 51 51 49 47